User: anonymous   Login
Location: Platte
(43.3870°N, 98.8440°W)
Time: 22:09:12
(UTC-05:00)
Language:

Landsat 7 - Orbit

View from above orbital plane
View from above orbital plane
View from above satellite
View from above satellite

Ground track
Ground track

The orbit data is extracted from the following two-line orbital elements,

1 25682U 99020A   16242.76105966 -.00000012  00000-0  73517-5 0  9990
2 25682  98.2075 312.1442 0001007 100.7309 259.3977 14.57107780924154
Epoch (UTC): 29 August 2016 18:15:55
Eccentricity: 0.0001007
inclination: 98.2075°
perigee height: 702 km
apogee height: 703 km
right ascension of ascending node: 312.1442°
argument of perigee: 100.7309°
revolutions per day: 14.57107780
mean anomaly at epoch: 259.3977°
orbit number at epoch: 92415

The dashed part of the orbit path shows where the satellite is in the earth's shadow,  

DLR